Location: Góry Miechowskie
(50.3599°N, 20.1803°E)
Time: 07:17:57
(UTC+00:00)

Courier 1B - Pass Details

Date: 14 September 2024
Orbit: 962 x 1208 km, 28.3° (Epoch: 12 October)

Event Time Altitude Azimuth Distance (km) Brightness Sun altitude
Rises 14:05:49 0° 221° (SW) 3,962 11.8 25.2°
Reaches altitude 10° 14:10:47 10° 193° (SSW) 3,058 10.8 24.5°
Maximum altitude 14:13:23 12° 172° (S) 2,931 10.3 24.2°
Drops below altitude 10° 14:16:01 10° 152° (SSE) 3,104 10.2 23.8°
Sets 14:21:10 0° 124° (SE) 4,097 10.5 23.1°
